Location: Unspecified
(43.4354°N, 0.0000°E)
Time: 16:43:03
(UTC+00:00)

Transit 2A - Pass Details

Date: 16 June 2019
Orbit: 594 x 964 km, 66.7° (Epoch: 19 July)

Event Time Altitude Azimuth Distance (km) Brightness Sun altitude
Rises 00:22:17 0° 168° (SSE) 3,586 - -23.0°
Reaches altitude 10° 00:25:20 10° 154° (SSE) 2,674 - -23.0°
Exits shadow 00:28:30 21° 126° (SE) 2,030 7.9 -22.9°
Maximum altitude 00:30:04 23° 106° (ESE) 1,938 8.0 -22.9°
Drops below altitude 10° 00:34:49 10° 57° (ENE) 2,696 9.3 -22.8°
Sets 00:37:53 0° 44° (NE) 3,623 10.4 -22.7°
